Time,TemperatureF,DewpointF,PressureIn,WindDirection,WindDirectionDegrees,WindSpeedMPH,WindSpeedGustMPH,Humidity,HourlyPrecipIn,Conditions,Clouds,dailyrainin,SolarRadiationWatts/m^2,SoftwareType,DateUTC
2013-01-09 00:00:00,38.9,32.3,29.80,SSE,153,9.0,9.0,77,0.00,,,0.00,0,Wunderground v.1.15,2013-01-09 08:00:00,
2013-01-09 00:10:00,40.0,32.4,29.78,ENE,59,4.0,4.0,74,0.00,,,0.00,0,Wunderground v.1.15,2013-01-09 08:10:00,
2013-01-09 00:20:00,39.9,32.3,29.77,NE,38,0.0,0.0,74,0.00,,,0.00,0,Wunderground v.1.15,2013-01-09 08:20:00,
2013-01-09 00:30:00,40.3,33.3,29.77,ENE,66,3.0,3.0,76,0.00,,,0.00,0,Wunderground v.1.15,2013-01-09 08:30:00,
2013-01-09 00:40:00,40.6,33.6,29.77,NNE,17,4.0,4.0,76,0.00,,,0.00,0,Wunderground v.1.15,2013-01-09 08:40:00,
2013-01-09 00:50:00,41.1,33.1,29.77,SE,130,0.0,0.0,73,0.00,,,0.00,0,Wunderground v.1.15,2013-01-09 08:50:00,
2013-01-09 01:00:00,38.8,32.2,29.76,SE,130,2.0,2.0,77,0.00,,,0.00,0,Wunderground v.1.15,2013-01-09 09:00:00,
2013-01-09 01:10:00,41.1,32.1,29.75,East,89,6.0,6.0,70,0.00,,,0.00,0,Wunderground v.1.15,2013-01-09 09:10:00,
2013-01-09 01:20:00,40.7,32.4,29.76,SW,223,3.0,3.0,72,0.00,,,0.00,0,Wunderground v.1.15,2013-01-09 09:20:00,
2013-01-09 01:30:00,41.1,32.8,29.74,ENE,67,5.0,5.0,72,0.00,,,0.00,0,Wunderground v.1.15,2013-01-09 09:30:00,
2013-01-09 01:40:00,41.2,33.2,29.74,ENE,77,2.0,5.0,73,0.00,,,0.00,0,Wunderground v.1.15,2013-01-09 09:40:00,
2013-01-09 01:50:00,39.5,32.6,29.73,North,1,0.0,3.0,76,0.00,,,0.00,0,Wunderground v.1.15,2013-01-09 09:50:00,
2013-01-09 02:00:00,41.1,33.8,29.73,SE,139,11.0,11.0,75,0.00,,,0.00,0,Wunderground v.1.15,2013-01-09 10:00:00,
2013-01-09 02:10:00,43.0,34.6,29.72,SSE,163,3.0,3.0,72,0.00,,,0.00,0,Wunderground v.1.15,2013-01-09 10:10:00,
2013-01-09 02:20:00,46.9,31.1,29.73,South,188,10.0,10.0,54,0.00,,,0.00,0,Wunderground v.1.15,2013-01-09 10:20:00,
2013-01-09 02:30:00,49.0,33.5,29.73,ESE,104,2.0,2.0,55,0.00,,,0.00,0,Wunderground v.1.15,2013-01-09 10:30:00,
2013-01-09 02:40:00,46.4,34.5,29.75,SSW,196,3.0,3.0,63,0.00,,,0.00,0,Wunderground v.1.15,2013-01-09 10:40:00,
2013-01-09 02:50:00,46.4,32.8,29.74,SSW,196,6.0,6.0,59,0.00,,,0.00,0,Wunderground v.1.15,2013-01-09 10:50:00,
2013-01-09 03:00:00,49.4,28.9,29.73,West,261,16.0,16.0,45,0.00,,,0.00,0,Wunderground v.1.15,2013-01-09 11:00:00,
2013-01-09 03:10:00,50.4,29.3,29.72,SSW,193,5.0,5.0,44,0.00,,,0.00,0,Wunderground v.1.15,2013-01-09 11:10:00,
2013-01-09 03:20:00,50.5,31.0,29.71,South,178,5.0,5.0,47,0.00,,,0.00,0,Wunderground v.1.15,2013-01-09 11:20:00,
2013-01-09 03:30:00,49.5,31.6,29.70,South,171,8.0,8.0,50,0.00,,,0.00,0,Wunderground v.1.15,2013-01-09 11:30:00,
2013-01-09 03:40:00,48.5,31.7,29.70,SSE,159,5.0,5.0,52,0.00,,,0.00,0,Wunderground v.1.15,2013-01-09 11:40:00,
2013-01-09 03:50:00,47.9,32.0,29.69,SSE,162,5.0,5.0,54,0.00,,,0.00,0,Wunderground v.1.15,2013-01-09 11:50:00,
2013-01-09 04:00:00,47.4,32.0,29.69,SSE,158,1.0,1.0,55,0.00,,,0.00,0,Wunderground v.1.15,2013-01-09 12:00:00,
2013-01-09 04:10:00,45.2,31.7,29.69,SSE,162,1.0,1.0,59,0.00,,,0.00,0,Wunderground v.1.15,2013-01-09 12:10:00,
2013-01-09 04:20:00,44.1,31.5,29.69,West,269,0.0,0.0,61,0.00,,,0.00,0,Wunderground v.1.15,2013-01-09 12:20:00,
2013-01-09 04:30:00,46.1,33.0,29.68,ENE,70,7.0,7.0,60,0.00,,,0.00,0,Wunderground v.1.15,2013-01-09 12:30:00,
2013-01-09 04:40:00,45.4,33.5,29.68,West,278,2.0,2.0,63,0.00,,,0.00,0,Wunderground v.1.15,2013-01-09 12:40:00,
2013-01-09 04:50:00,45.2,33.3,29.68,WSW,238,3.0,3.0,63,0.00,,,0.00,0,Wunderground v.1.15,2013-01-09 12:50:00,
2013-01-09 05:00:00,47.7,32.8,29.68,SW,235,14.0,14.0,56,0.00,,,0.00,0,Wunderground v.1.15,2013-01-09 13:00:00,
2013-01-09 05:10:00,47.8,33.7,29.68,South,189,11.0,11.0,58,0.00,,,0.00,0,Wunderground v.1.15,2013-01-09 13:10:00,
2013-01-09 05:20:00,47.6,34.0,29.66,South,189,17.0,17.0,59,0.00,,,0.00,0,Wunderground v.1.15,2013-01-09 13:20:00,
2013-01-09 05:30:00,47.2,34.0,29.64,South,173,11.0,11.0,60,0.00,,,0.00,0,Wunderground v.1.15,2013-01-09 13:30:00,
2013-01-09 05:40:00,46.8,34.0,29.62,SSE,151,10.0,10.0,61,0.00,,,0.00,0,Wunderground v.1.15,2013-01-09 13:40:00,
2013-01-09 05:50:00,46.6,33.9,29.62,SSE,150,17.0,17.0,61,0.00,,,0.00,0,Wunderground v.1.15,2013-01-09 13:50:00,
2013-01-09 06:00:00,46.3,34.0,29.62,SSE,152,6.0,6.0,62,0.00,,,0.00,0,Wunderground v.1.15,2013-01-09 14:00:00,
2013-01-09 06:10:00,47.2,33.2,29.61,SSW,198,7.0,7.0,58,0.00,,,0.00,0,Wunderground v.1.15,2013-01-09 14:10:00,
2013-01-09 06:20:00,48.1,32.7,29.60,South,173,8.0,8.0,55,0.00,,,0.00,0,Wunderground v.1.15,2013-01-09 14:20:00,
2013-01-09 06:30:00,48.2,32.3,29.59,SSW,206,10.0,10.0,54,0.00,,,0.00,0,Wunderground v.1.15,2013-01-09 14:30:00,
2013-01-09 06:40:00,48.6,31.3,29.59,South,178,16.0,16.0,51,0.00,,,0.00,0,Wunderground v.1.15,2013-01-09 14:40:00,
2013-01-09 06:50:00,48.8,31.0,29.59,SSW,198,5.0,5.0,50,0.00,,,0.00,0,Wunderground v.1.15,2013-01-09 14:50:00,
2013-01-09 07:00:00,48.8,31.5,29.58,SSW,195,6.0,6.0,51,0.00,,,0.00,0,Wunderground v.1.15,2013-01-09 15:00:00,
2013-01-09 07:10:00,48.6,31.3,29.58,South,173,14.0,14.0,51,0.00,,,0.00,0,Wunderground v.1.15,2013-01-09 15:10:00,
2013-01-09 07:20:00,48.7,31.4,29.58,SW,214,10.0,10.0,51,0.00,,,0.00,0,Wunderground v.1.15,2013-01-09 15:20:00,
2013-01-09 07:30:00,48.7,31.8,29.57,SSW,199,8.0,8.0,52,0.00,,,0.00,0,Wunderground v.1.15,2013-01-09 15:30:00,
2013-01-09 07:40:00,48.6,31.8,29.58,SW,233,7.0,7.0,52,0.00,,,0.00,0,Wunderground v.1.15,2013-01-09 15:40:00,
2013-01-09 07:50:00,47.6,31.8,29.57,WSW,239,9.0,9.0,54,0.00,,,0.00,0,Wunderground v.1.15,2013-01-09 15:50:00,
2013-01-09 08:00:00,48.1,32.2,29.57,SW,226,11.0,11.0,54,0.00,,,0.00,0,Wunderground v.1.15,2013-01-09 16:00:00,
2013-01-09 08:10:00,48.0,32.6,29.57,SSW,211,16.0,16.0,55,0.00,,,0.00,0,Wunderground v.1.15,2013-01-09 16:10:00,
2013-01-09 08:20:00,47.7,33.2,29.57,SW,215,20.0,20.0,57,0.00,,,0.00,0,Wunderground v.1.15,2013-01-09 16:20:00,
2013-01-09 08:30:00,46.9,35.4,29.58,SSW,208,25.0,25.0,64,0.00,,,0.00,0,Wunderground v.1.15,2013-01-09 16:30:00,
2013-01-09 08:40:00,45.2,36.0,29.58,SW,219,11.0,11.0,70,0.00,,,0.00,0,Wunderground v.1.15,2013-01-09 16:40:00,
2013-01-09 08:50:00,44.3,36.5,29.58,WSW,239,12.0,12.0,74,0.00,,,0.00,0,Wunderground v.1.15,2013-01-09 16:50:00,
2013-01-09 09:00:00,42.7,37.0,29.60,West,259,14.0,14.0,80,0.00,,,0.00,0,Wunderground v.1.15,2013-01-09 17:00:00,
2013-01-09 09:10:00,41.4,37.2,29.61,WSW,243,15.0,15.0,85,0.00,,,0.00,0,Wunderground v.1.15,2013-01-09 17:10:00,
2013-01-09 09:20:00,39.0,36.3,29.62,WSW,251,12.0,12.0,90,0.00,,,0.00,0,Wunderground v.1.15,2013-01-09 17:20:00,
2013-01-09 09:30:00,37.9,36.3,29.63,WSW,250,10.0,10.0,94,0.00,,,0.00,0,Wunderground v.1.15,2013-01-09 17:30:00,
2013-01-09 09:40:00,37.4,36.1,29.63,WSW,243,9.0,9.0,95,0.00,,,0.00,0,Wunderground v.1.15,2013-01-09 17:40:00,
2013-01-09 09:50:00,36.7,35.7,29.64,WSW,248,14.0,14.0,96,0.00,,,0.00,0,Wunderground v.1.15,2013-01-09 17:50:00,
2013-01-09 10:00:00,36.5,35.2,29.64,WSW,238,13.0,13.0,95,0.00,,,0.00,0,Wunderground v.1.15,2013-01-09 18:00:00,
2013-01-09 10:10:00,36.3,35.3,29.64,WSW,256,10.0,10.0,96,0.00,,,0.00,0,Wunderground v.1.15,2013-01-09 18:10:00,
2013-01-09 10:20:00,36.3,34.7,29.65,WSW,251,10.0,10.0,94,0.00,,,0.00,0,Wunderground v.1.15,2013-01-09 18:20:00,
2013-01-09 10:30:00,36.1,34.5,29.65,WSW,250,10.0,10.0,94,0.00,,,0.00,0,Wunderground v.1.15,2013-01-09 18:30:00,
2013-01-09 10:40:00,36.1,34.5,29.64,WSW,238,20.0,20.0,94,0.00,,,0.00,0,Wunderground v.1.15,2013-01-09 18:40:00,
2013-01-09 10:45:00,36.1,34.5,29.64,WSW,242,12.0,20.0,94,0.00,,,0.00,0,Wunderground v.1.15,2013-01-09 18:45:00,
2013-01-09 10:50:00,36.1,34.5,29.64,WSW,239,13.0,13.0,94,0.00,,,0.00,0,Wunderground v.1.15,2013-01-09 18:50:00,
2013-01-09 10:55:00,36.1,34.5,29.64,SW,236,13.0,13.0,94,0.00,,,0.00,0,Wunderground v.1.15,2013-01-09 18:55:00,
2013-01-09 11:00:00,36.3,34.7,29.64,WSW,238,14.0,14.0,94,0.00,,,0.00,0,Wunderground v.1.15,2013-01-09 19:00:00,
2013-01-09 11:10:00,36.5,34.4,29.63,WSW,247,24.0,24.0,92,0.00,,,0.00,0,Wunderground v.1.15,2013-01-09 19:10:00,
2013-01-09 11:20:00,36.6,34.2,29.63,WSW,243,13.0,13.0,91,0.00,,,0.00,0,Wunderground v.1.15,2013-01-09 19:20:00,
2013-01-09 11:30:00,36.6,34.2,29.63,WSW,250,17.0,17.0,91,0.00,,,0.00,0,Wunderground v.1.15,2013-01-09 19:30:00,
2013-01-09 11:40:00,37.1,34.2,29.62,WSW,252,16.0,16.0,89,0.00,,,0.00,0,Wunderground v.1.15,2013-01-09 19:40:00,
2013-01-09 11:50:00,37.6,34.1,29.62,WSW,251,14.0,14.0,87,0.00,,,0.00,0,Wunderground v.1.15,2013-01-09 19:50:00,
2013-01-09 12:00:00,37.1,34.2,29.62,West,259,8.0,8.0,89,0.00,,,0.00,0,Wunderground v.1.15,2013-01-09 20:00:00,
2013-01-09 12:10:00,36.8,33.9,29.62,WSW,242,11.0,11.0,89,0.00,,,0.00,0,Wunderground v.1.15,2013-01-09 20:10:00,
2013-01-09 12:20:00,37.0,33.2,29.62,West,259,16.0,16.0,86,0.00,,,0.00,0,Wunderground v.1.15,2013-01-09 20:20:00,
2013-01-09 12:30:00,36.9,33.4,29.62,SW,227,9.0,9.0,87,0.00,,,0.00,0,Wunderground v.1.15,2013-01-09 20:30:00,
2013-01-09 12:40:00,36.9,33.4,29.63,WSW,240,4.0,4.0,87,0.00,,,0.00,0,Wunderground v.1.15,2013-01-09 20:40:00,
2013-01-09 12:50:00,36.9,33.1,29.63,WSW,247,18.0,18.0,86,0.00,,,0.00,0,Wunderground v.1.15,2013-01-09 20:50:00,
2013-01-09 13:00:00,35.6,34.0,29.64,WSW,255,25.0,25.0,94,0.00,,,0.00,0,Wunderground v.1.15,2013-01-09 21:00:00,
2013-01-09 13:05:00,34.8,33.8,29.64,WSW,249,10.0,25.0,96,0.00,,,0.00,0,Wunderground v.1.15,2013-01-09 21:05:00,
2013-01-09 13:10:00,34.6,33.3,29.63,WSW,255,7.0,7.0,95,0.00,,,0.00,0,Wunderground v.1.15,2013-01-09 21:10:00,
2013-01-09 13:20:00,35.2,33.1,29.64,SW,235,11.0,11.0,92,0.00,,,0.00,0,Wunderground v.1.15,2013-01-09 21:20:00,
2013-01-09 13:30:00,36.6,32.5,29.63,WSW,243,4.0,4.0,85,0.00,,,0.00,0,Wunderground v.1.15,2013-01-09 21:30:00,
2013-01-09 13:40:00,37.0,33.2,29.64,WNW,289,6.0,6.0,86,0.00,,,0.00,0,Wunderground v.1.15,2013-01-09 21:40:00,
2013-01-09 13:50:00,33.6,33.6,29.66,WSW,242,7.0,7.0,100,0.00,,,0.00,0,Wunderground v.1.15,2013-01-09 21:50:00,
2013-01-09 14:00:00,32.7,32.7,29.67,WSW,239,1.0,1.0,100,0.00,,,0.00,0,Wunderground v.1.15,2013-01-09 22:00:00,
2013-01-09 14:10:00,33.2,33.2,29.66,SW,229,3.0,3.0,100,0.00,,,0.00,0,Wunderground v.1.15,2013-01-09 22:10:00,
2013-01-09 14:20:00,34.0,34.0,29.66,WSW,248,0.0,0.0,100,0.00,,,0.00,0,Wunderground v.1.15,2013-01-09 22:20:00,
2013-01-09 14:30:00,34.5,34.5,29.66,SW,236,0.0,0.0,100,0.00,,,0.00,0,Wunderground v.1.15,2013-01-09 22:30:00,
2013-01-09 14:40:00,34.9,34.9,29.66,West,272,6.0,6.0,100,0.00,,,0.00,0,Wunderground v.1.15,2013-01-09 22:40:00,
2013-01-09 14:50:00,34.1,34.1,29.67,West,270,3.0,3.0,100,0.00,,,0.00,0,Wunderground v.1.15,2013-01-09 22:50:00,
2013-01-09 15:00:00,32.9,32.9,29.69,WNW,293,2.0,2.0,100,0.00,,,0.00,0,Wunderground v.1.15,2013-01-09 23:00:00,
2013-01-09 15:10:00,32.6,32.6,29.67,West,261,3.0,3.0,100,0.00,,,0.00,0,Wunderground v.1.15,2013-01-09 23:10:00,
2013-01-09 15:20:00,31.8,31.6,29.68,WSW,257,3.0,3.0,99,0.00,,,0.00,0,Wunderground v.1.15,2013-01-09 23:20:00,
2013-01-09 15:30:00,31.6,31.4,29.69,WSW,246,5.0,5.0,99,0.00,,,0.00,0,Wunderground v.1.15,2013-01-09 23:30:00,
2013-01-09 15:40:00,31.7,30.9,29.67,West,261,3.0,3.0,97,0.00,,,0.00,0,Wunderground v.1.15,2013-01-09 23:40:00,
2013-01-09 15:50:00,32.1,30.0,29.68,WSW,245,9.0,9.0,92,0.00,,,0.00,0,Wunderground v.1.15,2013-01-09 23:50:00,
2013-01-09 16:00:00,31.9,29.8,29.67,WNW,296,4.0,4.0,92,0.00,,,0.00,0,Wunderground v.1.15,2013-01-10 00:00:00,
2013-01-09 16:10:00,32.0,28.6,29.67,West,259,13.0,13.0,87,0.00,,,0.00,0,Wunderground v.1.15,2013-01-10 00:10:00,
2013-01-09 16:20:00,32.2,28.2,29.68,West,260,15.0,15.0,85,0.00,,,0.00,0,Wunderground v.1.15,2013-01-10 00:20:00,
2013-01-09 16:30:00,32.2,27.9,29.67,West,264,12.0,12.0,84,0.00,,,0.00,0,Wunderground v.1.15,2013-01-10 00:30:00,
2013-01-09 16:40:00,32.2,27.6,29.67,West,268,12.0,12.0,83,0.00,,,0.00,0,Wunderground v.1.15,2013-01-10 00:40:00,
2013-01-09 16:50:00,32.0,28.0,29.68,West,271,4.0,4.0,85,0.00,,,0.00,0,Wunderground v.1.15,2013-01-10 00:50:00,
2013-01-09 17:00:00,31.5,28.4,29.69,West,265,9.0,9.0,88,0.00,,,0.00,0,Wunderground v.1.15,2013-01-10 01:00:00,
2013-01-09 17:10:00,30.8,28.8,29.70,WNW,302,2.0,2.0,92,0.00,,,0.00,0,Wunderground v.1.15,2013-01-10 01:10:00,
2013-01-09 17:20:00,30.5,28.2,29.70,WSW,256,2.0,2.0,91,0.00,,,0.00,0,Wunderground v.1.15,2013-01-10 01:20:00,
2013-01-09 17:30:00,30.4,28.4,29.68,NW,320,5.0,5.0,92,0.00,,,0.00,0,Wunderground v.1.15,2013-01-10 01:30:00,
2013-01-09 17:40:00,29.9,28.1,29.68,West,261,2.0,2.0,93,0.00,,,0.00,0,Wunderground v.1.15,2013-01-10 01:40:00,
2013-01-09 17:50:00,29.8,28.0,29.70,WSW,256,3.0,3.0,93,0.00,,,0.00,0,Wunderground v.1.15,2013-01-10 01:50:00,
2013-01-09 18:00:00,29.9,27.9,29.70,West,265,3.0,3.0,92,0.00,,,0.00,0,Wunderground v.1.15,2013-01-10 02:00:00,
2013-01-09 18:10:00,30.1,27.5,29.69,WNW,283,1.0,3.0,90,0.00,,,0.00,0,Wunderground v.1.15,2013-01-10 02:10:00,
2013-01-09 18:20:00,30.0,27.4,29.70,WNW,283,0.0,0.0,90,0.00,,,0.00,0,Wunderground v.1.15,2013-01-10 02:20:00,
2013-01-09 18:30:00,29.7,27.1,29.70,West,275,2.0,3.0,90,0.00,,,0.00,0,Wunderground v.1.15,2013-01-10 02:30:00,
2013-01-09 18:40:00,29.5,26.9,29.71,West,267,2.0,2.0,90,0.00,,,0.00,0,Wunderground v.1.15,2013-01-10 02:40:00,
2013-01-09 18:50:00,29.6,26.8,29.72,WSW,254,0.0,1.0,89,0.00,,,0.00,0,Wunderground v.1.15,2013-01-10 02:50:00,
2013-01-09 19:00:00,29.3,25.4,29.71,NNW,328,2.0,2.0,85,0.00,,,0.00,0,Wunderground v.1.15,2013-01-10 03:00:00,
2013-01-09 19:10:00,29.2,23.8,29.71,WSW,248,4.0,4.0,80,0.00,,,0.00,0,Wunderground v.1.15,2013-01-10 03:10:00,
2013-01-09 19:20:00,29.0,23.3,29.71,WSW,249,4.0,4.0,79,0.00,,,0.00,0,Wunderground v.1.15,2013-01-10 03:20:00,
2013-01-09 19:30:00,28.9,22.9,29.71,West,260,5.0,5.0,78,0.00,,,0.00,0,Wunderground v.1.15,2013-01-10 03:30:00,
2013-01-09 19:40:00,28.7,23.0,29.72,WSW,256,2.0,2.0,79,0.00,,,0.00,0,Wunderground v.1.15,2013-01-10 03:40:00,
2013-01-09 19:50:00,28.5,23.1,29.71,NNW,345,5.0,5.0,80,0.00,,,0.00,0,Wunderground v.1.15,2013-01-10 03:50:00,
2013-01-09 20:00:00,28.2,23.7,29.69,NNW,328,5.0,5.0,83,0.00,,,0.00,0,Wunderground v.1.15,2013-01-10 04:00:00,
2013-01-09 20:10:00,28.2,24.3,29.71,North,5,6.0,7.0,85,0.00,,,0.00,0,Wunderground v.1.15,2013-01-10 04:10:00,
2013-01-09 20:20:00,28.2,24.6,29.71,NW,325,0.0,4.0,86,0.00,,,0.00,0,Wunderground v.1.15,2013-01-10 04:20:00,
2013-01-09 20:30:00,28.0,24.4,29.72,WNW,301,1.0,1.0,86,0.00,,,0.00,0,Wunderground v.1.15,2013-01-10 04:30:00,
2013-01-09 20:40:00,27.8,24.2,29.72,WNW,300,1.0,1.0,86,0.00,,,0.00,0,Wunderground v.1.15,2013-01-10 04:40:00,
2013-01-09 20:50:00,27.8,24.2,29.70,West,281,3.0,3.0,86,0.00,,,0.00,0,Wunderground v.1.15,2013-01-10 04:50:00,
2013-01-09 21:00:00,27.7,24.3,29.71,NW,304,2.0,2.0,87,0.00,,,0.00,0,Wunderground v.1.15,2013-01-10 05:00:00,
2013-01-09 21:10:00,27.8,24.2,29.71,NW,304,1.0,1.0,86,0.00,,,0.00,0,Wunderground v.1.15,2013-01-10 05:10:00,
2013-01-09 21:15:00,27.9,24.3,29.71,West,260,2.0,2.0,86,0.00,,,0.00,0,Wunderground v.1.15,2013-01-10 05:15:00,
2013-01-09 21:20:00,27.9,24.3,29.71,West,265,2.0,2.0,86,0.00,,,0.00,0,Wunderground v.1.15,2013-01-10 05:20:00,
2013-01-09 21:30:00,27.9,24.3,29.71,West,263,1.0,1.0,86,0.00,,,0.00,0,Wunderground v.1.15,2013-01-10 05:30:00,
2013-01-09 21:35:00,27.5,23.9,29.71,West,263,0.0,1.0,86,0.00,,,0.00,0,Wunderground v.1.15,2013-01-10 05:35:00,
2013-01-09 21:40:00,27.2,23.8,29.71,West,263,0.0,0.0,87,0.00,,,0.00,0,Wunderground v.1.15,2013-01-10 05:40:00,
2013-01-09 21:50:00,26.5,23.7,29.72,West,263,0.0,0.0,89,0.00,,,0.00,0,Wunderground v.1.15,2013-01-10 05:50:00,
2013-01-09 21:55:00,26.3,23.5,29.71,SSW,205,1.0,1.0,89,0.00,,,0.00,0,Wunderground v.1.15,2013-01-10 05:55:00,
2013-01-09 22:00:00,26.4,23.9,29.71,SSW,206,0.0,0.0,90,0.00,,,0.00,0,Wunderground v.1.15,2013-01-10 06:00:00,
2013-01-09 22:10:00,26.3,23.8,29.71,SSW,207,0.0,0.0,90,0.00,,,0.00,0,Wunderground v.1.15,2013-01-10 06:10:00,
2013-01-09 22:20:00,26.2,23.9,29.71,SSW,206,1.0,1.0,91,0.00,,,0.00,0,Wunderground v.1.15,2013-01-10 06:20:00,
2013-01-09 22:30:00,26.1,24.1,29.71,SSW,203,3.0,3.0,92,0.00,,,0.00,0,Wunderground v.1.15,2013-01-10 06:30:00,
2013-01-09 22:40:00,26.1,24.1,29.72,SSW,203,0.0,0.0,92,0.00,,,0.00,0,Wunderground v.1.15,2013-01-10 06:40:00,
2013-01-09 22:50:00,26.3,24.3,29.72,SSW,203,2.0,2.0,92,0.00,,,0.00,0,Wunderground v.1.15,2013-01-10 06:50:00,
2013-01-09 23:00:00,26.2,23.9,29.72,SSW,203,0.0,0.0,91,0.00,,,0.00,0,Wunderground v.1.15,2013-01-10 07:00:00,
2013-01-09 23:10:00,26.4,24.1,29.72,SSW,203,0.0,0.0,91,0.00,,,0.00,0,Wunderground v.1.15,2013-01-10 07:10:00,
2013-01-09 23:20:00,26.8,24.3,29.72,WSW,256,5.0,5.0,90,0.00,,,0.00,0,Wunderground v.1.15,2013-01-10 07:20:00,
2013-01-09 23:30:00,27.3,24.2,29.71,West,259,2.0,4.0,88,0.00,,,0.00,0,Wunderground v.1.15,2013-01-10 07:30:00,
2013-01-09 23:40:00,26.6,23.8,29.71,WSW,257,0.0,1.0,89,0.00,,,0.00,0,Wunderground v.1.15,2013-01-10 07:40:00,
2013-01-09 23:50:00,25.6,23.6,29.70,WSW,257,2.0,2.0,92,0.00,,,0.00,0,Wunderground v.1.15,2013-01-10 07:50:00,